Sisseton, SD

8:49 PM CDT on April 24, 2017 (GMT -0500)
Sisseton

Weather History for K8D3 - April, 2012

Change the Weather History Date:

Friday, April 6, 2012

  Actual Average Record
Temperature  
Mean Temperature 50 °F 40 °F  
Max Temperature 68 °F 51 °F 85 °F (1991)
Min Temperature 32 °F 29 °F 5 °F (1979)
Degree Days  
Heating Degree Days 15 25  
Month to date heating degree days 82 159  
Since 1 July heating degree days 6025 7501  
Cooling Degree Days 0 0  
Month to date cooling degree days 0 0  
Year to date cooling degree days 7 0  
Moisture  
Dew Point 25 °F    
Average Humidity 45    
Maximum Humidity 70    
Minimum Humidity 19    
Precipitation  
Precipitation 0.00 in 0.06 in 0.94 in (2006)
Month to date precipitation 0.00 0.24  
Year to date precipitation 2.62 2.22  
Snow  
Snow 0.00 in - - ()
Month to date snowfall 0.0  
Since 1 July snowfall 20.9  
Snow Depth 0.00 in    
Sea Level Pressure  
Sea Level Pressure 30.01 in    
Wind  
Wind Speed 17 mph (South)    
Max Wind Speed 33 mph    
Max Gust Speed 44 mph    
T = Trace of Precipitation, MM = Missing Value Source: NWS Daily Summary

Daily Weather History Graph

Daily Weather History Graph

Search for Another Location

Airport or City:

Trip Planner

Search our weather history database for the weather conditions in past years. The results will help you decide how hot, cold, wet, or windy it might be!

Date:

Astronomy

Apr. 06, 2012 Rise Set
Actual Time 6:57 AM CDT 8:03 PM CDT
Civil Twilight 6:27 AM CDT 8:33 PM CDT
Nautical Twilight 5:50 AM CDT 9:10 PM CDT
Astronomical Twilight 5:12 AM CDT 9:49 PM CDT
Moon 8:28 PM CDT (4/6) 6:29 AM CDT (4/6)
Length of Visible Light 14h 06m
Length of Day
13h 05m
Full, 100% of the Moon is Illuminated
Apr 6
Full
Apr 6
Full
Apr 13
Last Quarter
Apr 21
New
Apr 29
First Quarter

Hourly Weather History & Observations

Time (CDT) Temp. Windchill Dew Point Humidity Pressure Visibility Wind Dir Wind Speed Gust Speed Precip Events Conditions
12:56 AM 39.0 °F 34.0 °F 28.0 °F 65% 30.11 in - South 6.9 mph - N/A   Unknown
1:56 AM 39.9 °F 34.5 °F 28.0 °F 63% 30.11 in - SSE 8.1 mph - N/A   Unknown
2:56 AM 37.0 °F 33.3 °F 26.1 °F 65% 30.11 in - South 4.6 mph - N/A   Unknown
3:56 AM 36.0 °F 31.1 °F 26.1 °F 67% 30.11 in - South 5.8 mph - N/A   Unknown
4:56 AM 37.0 °F 31.6 °F 26.1 °F 65% 30.10 in - South 6.9 mph - N/A   Unknown
5:56 AM 37.0 °F 32.4 °F 25.0 °F 62% 30.10 in - South 5.8 mph - N/A   Unknown
6:56 AM 33.1 °F 30.0 °F 25.0 °F 72% 30.12 in - South 3.5 mph - N/A   Unknown
7:56 AM 36.0 °F 30.3 °F 26.1 °F 67% 30.13 in - South 6.9 mph - N/A   Unknown
8:56 AM 41.0 °F 33.5 °F 27.0 °F 57% 30.12 in - South 13.8 mph - N/A   Unknown
9:56 AM 48.9 °F - 28.9 °F 46% 30.10 in - South 15.0 mph - N/A   Unknown
10:56 AM 55.9 °F - 30.9 °F 39% 30.07 in - South 19.6 mph 26.5 mph N/A   Unknown
11:56 AM 62.1 °F - 28.0 °F 28% 30.04 in - South 26.5 mph 34.5 mph N/A   Unknown
12:56 PM 62.1 °F - 27.0 °F 26% 30.01 in - SSE 26.5 mph 33.4 mph N/A   Unknown
1:56 PM 64.9 °F - 26.1 °F 23% 29.99 in - South 27.6 mph 36.8 mph N/A   Unknown
2:56 PM 66.0 °F - 24.1 °F 20% 29.96 in - South 25.3 mph 38.0 mph N/A   Unknown
3:56 PM 66.0 °F - 24.1 °F 20% 29.91 in - South 26.5 mph 39.1 mph N/A   Unknown
4:56 PM 64.0 °F - 25.0 °F 23% 29.89 in - South 27.6 mph 36.8 mph N/A   Unknown
5:56 PM 66.0 °F - 23.0 °F 20% 29.87 in - South 32.2 mph 41.4 mph N/A   Unknown
6:56 PM 62.1 °F - 21.0 °F 21% 29.87 in - South 26.5 mph 33.4 mph N/A   Unknown
7:56 PM 60.1 °F - 21.0 °F 22% 29.85 in - SSE 24.2 mph 31.1 mph N/A   Unknown
8:56 PM 57.0 °F - 21.0 °F 25% 29.88 in - SSE 17.3 mph - N/A   Unknown
9:56 PM 55.0 °F - 21.9 °F 28% 29.91 in - South 15.0 mph - N/A   Unknown
10:56 PM 54.0 °F - 25.0 °F 33% 29.90 in - South 16.1 mph - N/A   Unknown
11:56 PM 54.0 °F - 26.1 °F 34% 29.87 in - South 19.6 mph - N/A   Unknown